CW5532 Fals ES current weather conditions

sailwx.info

Wind from 238

Air temperature 18.9° C
Dewpoint 11.9° C

Last reported at 2019-Sep-16 22:02 UTC.
Time now 2019-Sep-16 22:50 UTC

Location: N 41°45' E 001°43'.
View on Google Maps.

See reports from other nearby stations

  
Tides and Currents Weather Stations Pressure Air Temp Water Temp Dewpoint Dewpoint Depression Visibility Wind Speed Wind Dir Waves Ship Positions
date/time (UTC)wind fromknots sea level pressurealtimeterstation pressurevisibilityair tempwater tempwave heightnotes
2019-Sep-16 22:02 238 18.9
2019-Sep-16 21:32 238 19.4
2019-Sep-16 21:07 238 19.4
2019-Sep-16 21:02 238 19.4
2019-Sep-16 20:37 254 20.0
2019-Sep-16 20:32 254 20.0
2019-Sep-16 20:07 254 20.6
2019-Sep-16 20:02 254 20.6
2019-Sep-16 19:32 254 22.2
2019-Sep-16 19:07 254 22.8
2019-Sep-16 19:02 254 22.8
2019-Sep-16 18:37 104 23.9
2019-Sep-16 18:07 110 25.6
2019-Sep-16 18:02 114 0 gusting 4 26.1
2019-Sep-16 17:37 168 26.7
2019-Sep-16 16:32 185 28.9
2019-Sep-16 16:07 166 1 gusting 6 28.9
2019-Sep-16 15:37 118 2 gusting 5 29.4
2019-Sep-16 15:32 102 29.4
2019-Sep-16 15:07 119 4 gusting 8 29.4
2019-Sep-16 15:02 122 29.4
2019-Sep-16 14:37 078 1 gusting 7 29.4
2019-Sep-16 14:32 095 3 gusting 13 29.4
2019-Sep-16 14:07 098 29.4
2019-Sep-16 14:02 117 1 gusting 8 29.4
2019-Sep-16 13:37 094 4 gusting 8 30.0
2019-Sep-16 13:32 091 0 gusting 8 30.0
2019-Sep-16 13:02 160 0 gusting 7 29.4
2019-Sep-16 12:37 116 1 gusting 10 29.4
2019-Sep-16 12:07 109 3 gusting 8 28.9
2019-Sep-16 12:02 086 2 gusting 11 28.3
2019-Sep-16 11:32 096 0 gusting 10 27.8
2019-Sep-16 11:02 099 1 gusting 7 27.8
2019-Sep-16 10:37 111 26.7
2019-Sep-16 10:32 119 1 gusting 5 27.2
2019-Sep-16 10:07 092 1 gusting 5 26.7
2019-Sep-16 10:02 114 0 gusting 5 26.7
2019-Sep-16 09:37 120 2 gusting 2 26.7
2019-Sep-16 09:02 156 24.4
2019-Sep-16 08:32 209 22.8
2019-Sep-16 08:07 244 21.7
2019-Sep-16 07:37 249 18.9
2019-Sep-16 07:32 249 18.3
2019-Sep-16 07:07 244 16.7
2019-Sep-16 07:02 245 16.1
2019-Sep-16 06:37 245 15.6
2019-Sep-16 06:02 244 13.9
2019-Sep-16 05:37 263 13.9
2019-Sep-16 05:32 264 13.9
2019-Sep-16 05:07 264 13.9
2019-Sep-16 04:37 264 13.9
2019-Sep-16 04:32 264 13.9
2019-Sep-16 04:07 264 14.4
2019-Sep-16 04:02 264 14.4
2019-Sep-16 03:37 264 14.4
2019-Sep-16 03:32 264 13.9
2019-Sep-16 03:07 264 14.4
2019-Sep-16 03:02 264 14.4
2019-Sep-16 02:32 264 15.0
2019-Sep-16 02:07 273 15.6
2019-Sep-16 02:02 276 15.6
2019-Sep-16 01:37 277 15.6
2019-Sep-16 01:07 277 16.1
2019-Sep-16 00:37 281 0 gusting 2 16.1
2019-Sep-16 00:07 281 16.7
2019-Sep-15 23:37 281 17.2
2019-Sep-15 23:32 281 17.2
2019-Sep-15 23:07 287 17.2
2019-Sep-15 23:02 287 17.2
2019-Sep-15 22:37 287 17.8
2019-Sep-15 22:02 287 18.3
2019-Sep-15 21:32 287 19.4
2019-Sep-15 21:07 298 19.4
2019-Sep-15 21:02 298 20.0
2019-Sep-15 20:37 300 20.6
2019-Sep-15 20:07 313 21.1
2019-Sep-15 20:02 313 21.7
2019-Sep-15 19:32 318 0 gusting 2 22.8
2019-Sep-15 19:07 084 1 gusting 5 23.3
2019-Sep-15 19:02 095 1 gusting 7 23.3
2019-Sep-15 18:37 118 4 gusting 7 23.9
2019-Sep-15 18:07 095 1 gusting 5 25.0
2019-Sep-15 18:02 098 2 gusting 7 25.6
2019-Sep-15 17:37 106 1 gusting 5 26.1
2019-Sep-15 17:32 126 26.7
2019-Sep-15 17:07 131 3 gusting 7 27.2
2019-Sep-15 16:37 108 0 gusting 7 27.8
2019-Sep-15 16:32 122 2 gusting 8 28.3
2019-Sep-15 16:07 128 0 gusting 10 28.9
2019-Sep-15 16:02 100 4 gusting 12 28.9
2019-Sep-15 15:02 103 0 gusting 11 29.4
2019-Sep-15 14:32 117 2 gusting 10 29.4
2019-Sep-15 13:37 224 0 gusting 8 29.4
2019-Sep-15 13:32 075 2 gusting 15 29.4
2019-Sep-15 13:07 044 2 gusting 14 28.9
2019-Sep-15 13:02 069 6 gusting 13 28.9
2019-Sep-15 12:07 127 1 gusting 6 28.3
2019-Sep-15 12:02 113 2 gusting 8 28.3
2019-Sep-15 11:37 083 3 gusting 10 27.8
2019-Sep-15 11:07 123 2 gusting 6 26.7
2019-Sep-15 11:02 067 26.7
2019-Sep-15 10:37 074 0 gusting 7 26.1
2019-Sep-15 10:07 113 2 gusting 10 25.6
2019-Sep-15 10:02 100 2 gusting 6 25.6
2019-Sep-15 09:32 070 25.0
2019-Sep-15 09:07 091 0 gusting 6 25.6
2019-Sep-15 09:02 058 1 gusting 5 25.0
2019-Sep-15 08:37 168 23.9
2019-Sep-15 08:07 174 22.2
2019-Sep-15 08:02 174 22.2
2019-Sep-15 07:37 178 20.0
2019-Sep-15 07:32 244 20.0
2019-Sep-15 07:02 246 17.8
2019-Sep-15 06:37 246 15.6
2019-Sep-15 06:32 246 15.6
2019-Sep-15 06:07 246 14.4
2019-Sep-15 06:02 247 14.4
2019-Sep-15 05:37 280 15.0
2019-Sep-15 05:07 280 15.0
2019-Sep-15 05:02 280 15.0
2019-Sep-15 04:37 280 15.6
2019-Sep-15 04:32 280 16.1
2019-Sep-15 04:02 280 16.7
2019-Sep-15 03:07 280 0 gusting 2 17.8
2019-Sep-15 03:02 280 18.3
2019-Sep-15 02:32 077 18.9
2019-Sep-15 02:07 249 18.3
2019-Sep-15 02:02 249 18.3
2019-Sep-15 01:37 249 18.3
2019-Sep-15 01:07 249 17.8
2019-Sep-15 01:02 249 17.8
2019-Sep-15 00:37 249 18.9
2019-Sep-15 00:32 249 18.9
2019-Sep-15 00:07 249 18.9
2019-Sep-14 23:37 249 19.4
2019-Sep-14 23:32 249 19.4
2019-Sep-14 23:07 249 18.9
2019-Sep-14 22:32 249 19.4
2019-Sep-14 22:07 260 20.0
2019-Sep-14 22:02 260 20.0